« Back
NWS Peachtree City, Ga » Text Product » GA Regional Weather Roundup


Printer-friendly Version
Current Version              Previous Versions:   1  2  3  4  5  6  7  8  9  

Regional Weather Roundup

654
ASUS42 KFFC 051203
RWRGA
WEATHER ROUNDUP FOR GEORGIA
NATIONAL WEATHER SERVICE PEACHTREE CITY GA
700 AM EST THU MAR 05 2015

NOTE: "FAIR" INDICATES FEW OR NO CLOUDS BELOW 12,000 FEET WITH NO
SIGNIFICANT WEATHER AND/OR OBSTRUCTIONS TO VISIBILITY.

* = USE WITH CAUTION. THE STATIONS MARKED WITH AN ASTERISK MAY NOT
REPORT WEATHER SUCH AS PRECIPITATION, FOG, OR THUNDER AND ARE NOT
QUALITY CONTROLLED BY NWS.

THE REMARK "TC" DENOTES TEMPERATURE READING IN DEGREES CELSIUS.

GAZ001>058-051300-
NORTH GEORGIA

CITY           SKY/WX    TMP DP  RH WIND       PRES   REMARKS
ATLANTA        CLOUDY    64  62  93 NW7       29.89R
6HR MIN TEMP:  64; 6HR MAX TEMP:  67; 6HR PCP:  0.10;

ATHENS         CLOUDY    65  62  90 SW8G18    29.87F
6HR MIN TEMP:  64; 6HR MAX TEMP:  66; 6HR PCP:  0.01;

CHAMBLEE       CLOUDY    53  51  93 W6        29.89R
6HR MIN TEMP:  53; 6HR MAX TEMP:  65; 6HR PCP:  0.09;

PEACHTREE CITY CLOUDY    66  64  93 VRB7      29.90S
6HR MIN TEMP:  65; 6HR MAX TEMP:  68; 6HR PCP:  0.05;

ROME           CLOUDY    42  40  92 N9        29.94F
6HR MIN TEMP:  42; 6HR MAX TEMP:  56; 6HR PCP:  0.05;

WEST ATLANTA   CLOUDY    51  49  92 NW6       29.90R
6HR MIN TEMP:  51; 6HR MAX TEMP:  67; 6HR PCP:  0.09;

GAINESVILLE    LGT RAIN  59  58  96 W10       29.89R
6HR MIN TEMP:  59; 6HR MAX TEMP:  65; 6HR PCP:  0.04;

CARTERSVILLE   CLOUDY    42  40  92 VRB5      29.95S
6HR MIN TEMP:  42; 6HR MAX TEMP:  62; 6HR PCP:  0.07;



CITY           SKY/WX    TMP DP  RH WIND       PRES   REMARKS
DALTON*        CLOUDY    37  37 100 N14G20    29.96S WCI  29
LAWRENCEVILLE* LGT RAIN  64  57  77 SW9       29.87  FOG
MARIETTA       CLOUDY    47  47 100 NW9       29.91R FOG
KENNESAW*      LGT RAIN N/A N/A N/A W6        28.78  FOG
$$

GAZ059>098-102>109-051300-
CENTRAL GEORGIA

CITY           SKY/WX    TMP DP  RH WIND       PRES   REMARKS
AUGUSTA-BUSH   CLOUDY    68  63  84 S10       29.94F
6HR MIN TEMP:  64; 6HR MAX TEMP:  68;

AUGUSTA-DANIEL CLOUDY    69  63  81 SW14G23   29.93F
6HR MIN TEMP:  68; 6HR MAX TEMP:  69;

COLUMBUS       LGT RAIN  67  65  93 SW6       29.91S
6HR MIN TEMP:  64; 6HR MAX TEMP:  68; 6HR PCP:  0.37;

MACON          CLOUDY    69  64  84 SW9       29.94S
6HR MIN TEMP:  68; 6HR MAX TEMP:  69;

ROBINS AFB     MOCLDY    70  65  84 S10       29.92R


CITY           SKY/WX    TMP DP  RH WIND       PRES   REMARKS
LAGRANGE*      CLOUDY    69  68  95 SW6       29.90S
SYLVANIA*      CLOUDY    66  65  96 SW7       29.99F
MILLEDGEVILLE* CLOUDY    68  66  94 S5        29.93S
$$

GAZ099>101-110>166-051300-
SOUTH GEORGIA

CITY           SKY/WX    TMP DP  RH WIND       PRES   REMARKS
SAVANNAH       PTCLDY    65  63  93 S10       30.02R
6HR MIN TEMP:  61; 6HR MAX TEMP:  67;

VALDOSTA       CLOUDY    68  66  93 S9        30.04F
6HR MIN TEMP:  68; 6HR MAX TEMP:  70; 6HR PCP:  0.01;

ALMA           MOCLDY    66  64  93 S12       30.01F
6HR MIN TEMP:  64; 6HR MAX TEMP:  67;

ST SIMONS      CLOUDY    60  59  96 MISG      30.07R FOG
6HR MIN TEMP:  58; 6HR MAX TEMP:  66;

FT STEWART     PTCLDY    66  64  94 S5        30.01R
ALBANY         PTCLDY    68  65  90 S12       29.99R
HUNTER AFB     CLEAR     65  65 100 S7        30.01R
MOODY AFB      CLOUDY    68  65  90 S12       30.02F
BRUNSWICK      CLOUDY    68  64  88 SW6       30.07R


CITY           SKY/WX    TMP DP  RH WIND       PRES   REMARKS
BAINBRIDGE*    CLEAR     72  68  88 S7        29.99R
MOULTRIE*      CLOUDY    68  68 100 S9        30.02F
VIDALIA*       PTCLDY    66  64  94 SW10G17   29.99S
WAYCROSS*      MOCLDY    71  69  95 SW8       30.05R
DOUGLAS*       CLOUDY    70  66  88 S6        30.03F
$$



USA.gov is the U.S. government's official web portal to all federal, state and local government web resources and services.